一网星座-0623星 (ONEWEB-0623)

导读

ONEWEB-0623是英国OneWeb星座旗下的低轨通信卫星,由空客防务与航天公司研发,于2023年1月10日发射入轨,运行在高度约1200公里的近极轨道。卫星重约147公斤,设计寿命7年,搭载Ku频段有效载荷,单星可提供不低于8Gbps的吞吐量,服务全球互联网接入需求,是OneWeb全球卫星宽带网络的组成部分,助力填补网络覆盖空白,推动全球互联。

基本信息
目录编号:
55164
目录名称:
ONEWEB-0623
国际标识:
2023-004AA
轨道中心:
EARTH
卫星名称:
一网星座-0623星
卫星全名:
一网星座-0623星 (ONEWEB-0623)
卫星状态:
在轨 (已飞行1341 天)
发射日期:
2023-01-10 UTC
国别 :
英国 (GB)
星等 :
--
该卫星已列入 空间交会检测服务 Space Conjunction Data Service (SCDS) ,当前飞行风险评估等级: 无高风险
轨道信息
数据来源 国际轨道数据 AOE轨道数据
星历时间 2026-09-11T23:52:19+0800
11小时前
查看轨道信息
2026-09-11T02:00:00+0800
1天前
查看轨道信息
半长轴 7571.851km 7571.858km
偏心率 0.0002103 0.000186
轨道倾角 87.920° 87.921°
近地点辐角 124.103° 112.984°
升交点赤经 348.702° 348.883°
平近点角 236.030° 246.710°
近地点 1192.121km 1192.312km
远地点 1195.307km 1195.13km
周期 109.286分钟 109.286分钟
每日圈数 13.176489 13.17647
详细信息
平衡模式:
三轴稳定
覆盖范围:
全球
运营商:
一网卫星公司
运营商所在国:
英国
制造商(研发单位):
一网卫星公司
制造商所在国:
英国
使用方式:
暂无
卫星简介
OneWeb卫星网络由648颗重约125公斤的微型卫星组成,运行在1200公里的轨道上。 每颗卫星都能够提供至少每秒8千兆位的吞吐量,以使用其高吞吐量的Ku频段有效载荷为家庭和移动平台提供互联网接入。该卫星仍在工作。
2D轨道图
3D轨道图
轨道高度分析图
轨道倾角分析图
轨道综合分析图
查看轨道综合分析图
与全量物体交会距离演化趋势
与全量物体交会风险概率演化趋势